| time (UTC) | temp C | wind direction | speed KPH | gust KPH | rain 1hr cm | rain 24hr cm | rain mn cm | humidity % | barometer mb |
| 20260505041418 | 13 | 271 | 9.7 | 16.1 | 0.00 | 0.00 | 0.00 | 100 | |
| 20260505040418 | 13 | 264 | 6.4 | 14.5 | 0.00 | 0.00 | 0.00 | 100 | |
| 20260505035418 | 13 | 254 | 8.0 | 16.1 | 0.00 | 0.00 | 0.00 | 100 | |
| 20260505034418 | 13 | 236 | 8.0 | 12.9 | 0.00 | 0.00 | 0.00 | 100 | |
| 20260505033418 | 14 | 243 | 6.4 | 17.7 | 0.00 | 0.00 | 0.00 | 100 | |
| 20260505032419 | 14 | 230 | 8.0 | 14.5 | 0.00 | 0.00 | 0.00 | 100 | |
| 20260505031418 | 14 | 236 | 8.0 | 14.5 | 0.00 | 0.00 | 0.00 | 100 | |
| 20260505030418 | 14 | 229 | 8.0 | 16.1 | 0.00 | 0.00 | 0.00 | 100 | |
| 20260505025418 | 14 | 226 | 12.9 | 14.5 | 0.00 | 0.00 | 0.00 | 100 | |
| 20260505024418 | 15 | 240 | 6.4 | 24.1 | 0.00 | 0.00 | 0.00 | 100 | |
| 20260505023418 | 15 | 232 | 9.7 | 16.1 | 0.00 | 0.00 | 0.00 | 100 | |
| 20260505022418 | 15 | 253 | 14.5 | 14.5 | 0.00 | 0.00 | 0.00 | 100 | |
| 20260505021419 | 15 | 223 | 6.4 | 11.3 | 0.00 | 0.00 | 0.00 | 100 | |
| 20260505020419 | 15 | 227 | 6.4 | 16.1 | 0.00 | 0.00 | 0.00 | 100 | |
| 20260505015419 | 16 | 246 | 8.0 | 16.1 | 0.00 | 0.00 | 0.00 | 100 | |
| 20260505014419 | 15 | 243 | 12.9 | 25.7 | 0.00 | 0.00 | 0.00 | 100 | |
| 20260505013419 | 16 | 239 | 8.0 | 17.7 | 0.00 | 0.00 | 0.00 | 100 | |
| 20260505012419 | 16 | 232 | 9.7 | 16.1 | 0.00 | 0.00 | 0.00 | 100 | |
| 20260505011419 | 16 | 243 | 11.3 | 14.5 | 0.00 | 0.00 | 0.00 | 100 | |
| 20260505010419 | 16 | 230 | 6.4 | 17.7 | 0.00 | 0.00 | 0.00 | 100 | |
| 20260505005419 | 16 | 234 | 11.3 | 17.7 | 0.00 | 0.00 | 0.00 | 100 | |
| 20260505004419 | 17 | 205 | 11.3 | 17.7 | 0.00 | 0.00 | 0.00 | 100 | |
| 20260505003419 | 17 | 223 | 14.5 | 16.1 | 0.00 | 0.00 | 0.00 | 100 | |
| 20260505002419 | 17 | 264 | 9.7 | 9.7 | 0.00 | 0.00 | 0.00 | 100 | |
| 20260505001419 | 17 | 291 | 4.8 | 11.3 | 0.00 | 0.00 | 0.00 | 100 | |
| 20260505000420 | 17 | 262 | 4.8 | 8.0 | 0.00 | 0.00 | 0.00 | 100 | |
| 20260504235419 | 17 | 248 | 3.2 | 8.0 | 0.00 | 0.00 | 0.00 | 100 | |
| 20260504234419 | 18 | 255 | 8.0 | 11.3 | 0.00 | 0.00 | 0.00 | 100 | |
| 20260504233419 | 19 | 254 | 6.4 | 12.9 | 0.00 | 0.00 | 0.00 | 100 | |
| 20260504232419 | 19 | 277 | 4.8 | 11.3 | 0.00 | 0.00 | 0.00 | 100 | |
| 20260504231419 | 19 | 291 | 11.3 | 11.3 | 0.00 | 0.00 | 0.00 | 100 | |
| 20260504230419 | 20 | 264 | 4.8 | 17.7 | 0.00 | 0.00 | 0.00 | 100 | |
| 20260504225419 | 20 | 250 | 4.8 | 12.9 | 0.00 | 0.00 | 0.00 | 100 | |
| 20260504224419 | 21 | 278 | 6.4 | 20.9 | 0.00 | 0.00 | 0.00 | 100 | |
| 20260504223419 | 21 | 260 | 6.4 | 17.7 | 0.00 | 0.00 | 0.00 | 100 | |
| 20260504222419 | 21 | 265 | 8.0 | 20.9 | 0.00 | 0.00 | 0.00 | 100 | |
| 20260504221419 | 21 | 289 | 14.5 | 19.3 | 0.00 | 0.00 | 0.00 | 100 | |
| 20260504220419 | 20 | 261 | 9.7 | 17.7 | 0.00 | 0.00 | 0.00 | 100 | |
| 20260504215419 | 21 | 264 | 17.7 | 20.9 | 0.00 | 0.00 | 0.00 | 100 | |
| 20260504214419 | 22 | 282 | 8.0 | 14.5 | 0.00 | 0.00 | 0.00 | 100 | |
| 20260504213419 | 22 | 285 | 8.0 | 27.4 | 0.00 | 0.00 | 0.00 | 100 | |
| 20260504212419 | 22 | 248 | 11.3 | 16.1 | 0.00 | 0.00 | 0.00 | 100 | |
| 20260504211419 | 22 | 239 | 9.7 | 22.5 | 0.00 | 0.00 | 0.00 | 100 | |
| 20260504210419 | 21 | 262 | 9.7 | 27.4 | 0.00 | 0.00 | 0.00 | 100 | |
| 20260504205419 | 22 | 230 | 9.7 | 11.3 | 0.00 | 0.00 | 0.00 | 100 | |
| 20260504204419 | 21 | 279 | 11.3 | 19.3 | 0.00 | 0.00 | 0.00 | 100 | |
| 20260504203419 | 21 | 268 | 12.9 | 25.7 | 0.00 | 0.00 | 0.00 | 100 | |
| 20260504202419 | 21 | 261 | 9.7 | 24.1 | 0.00 | 0.00 | 0.00 | 100 | |
| 20260504201419 | 21 | 210 | 12.9 | 25.7 | 0.00 | 0.00 | 0.00 | 100 | |
| 20260504200419 | 22 | 258 | 6.4 | 20.9 | 0.00 | 0.00 | 0.00 | 100 | |
| 20260504195419 | 22 | 274 | 12.9 | 29.0 | 0.00 | 0.00 | 0.00 | 100 | |
| 20260504194419 | 22 | 268 | 11.3 | 27.4 | 0.00 | 0.00 | 0.00 | 100 | |
| 20260504193456 | 23 | 253 | 8.0 | 16.1 | 0.00 | 0.00 | 0.00 | 100 | |
| 20260504193419 | 23 | 253 | 8.0 | 16.1 | 0.00 | 0.00 | 0.00 | 100 | |
| 20260504192419 | 21 | 241 | 16.1 | 29.0 | 0.00 | 0.00 | 0.00 | 100 | |
| 20260504191419 | 21 | 277 | 12.9 | 32.2 | 0.00 | 0.00 | 0.00 | 100 | |
| 20260504190419 | 22 | 281 | 11.3 | 22.5 | 0.00 | 0.00 | 0.00 | 100 | |
| 20260504185419 | 22 | 230 | 11.3 | 38.6 | 0.00 | 0.00 | 0.00 | 100 | |
| 20260504184419 | 21 | 298 | 24.1 | 27.4 | 0.00 | 0.00 | 0.00 | 100 | |
| 20260504183419 | 21 | 277 | 25.7 | 27.4 | 0.00 | 0.00 | 0.00 | 100 | |
| 20260504182419 | 22 | 310 | 8.0 | 30.6 | 0.00 | 0.00 | 0.00 | 100 | |
| 20260504181419 | 21 | 305 | 12.9 | 38.6 | 0.00 | 0.00 | 0.00 | 100 | |
| 20260504180419 | 21 | 271 | 12.9 | 37.0 | 0.00 | 0.00 | 0.00 | 100 | |
| 20260504175419 | 21 | 277 | 11.3 | 40.2 | 0.00 | 0.00 | 0.00 | 100 | |
| 20260504174419 | 21 | 282 | 11.3 | 33.8 | 0.00 | 0.00 | 0.00 | 100 | |
| 20260504173419 | 21 | 260 | 9.7 | 24.1 | 0.00 | 0.00 | 0.00 | 100 | |
| 20260504172419 | 20 | 239 | 12.9 | 37.0 | 0.00 | 0.00 | 0.00 | 100 | |
| 20260504171419 | 20 | 255 | 14.5 | 29.0 | 0.00 | 0.00 | 0.00 | 100 | |
| 20260504170419 | 20 | 253 | 16.1 | 27.4 | 0.00 | 0.00 | 0.00 | 100 | |
| 20260504160419 | 20 | 251 | 14.5 | 35.4 | 0.00 | 0.00 | 0.00 | 100 | |
| 20260504150420 | 18 | 285 | 14.5 | 33.8 | 0.00 | 0.00 | 0.00 | 100 | |
| 20260504140420 | 17 | 251 | 22.5 | 29.0 | 0.00 | 0.00 | 0.00 | 100 | |
| 20260504130420 | 15 | 268 | 6.4 | 22.5 | 0.00 | 0.00 | 0.00 | 100 | |
| 20260504110420 | 8 | 250 | 8.0 | 9.7 | 0.00 | 0.00 | 0.00 | 100 | |
| 20260504100420 | 6 | 239 | 6.4 | 12.9 | 0.00 | 0.00 | 0.00 | 100 | |
| 20260504081421 | 6 | 255 | 6.4 | 8.0 | 0.00 | 0.00 | 0.00 | 100 | |
| 20260504080420 | 6 | 253 | 4.8 | 8.0 | 0.00 | 0.00 | 0.00 | 100 | |
| 20260504050421 | 3 | 248 | 4.8 | 6.4 | 0.00 | 0.00 | 0.00 | 100 | |
| 20260504045421 | 4 | 248 | 6.4 | 8.0 | 0.00 | 0.00 | 0.00 | 100 | |
| 20260504044421 | 5 | 265 | 4.8 | 8.0 | 0.00 | 0.00 | 0.00 | 100 | |
| 20260504043421 | 5 | 244 | 8.0 | 12.9 | 0.00 | 0.00 | 0.00 | 100 |